Hourly Data Report for October 01, 2015

All times are specified in Local Standard Time (LST). Add 1 hour to adjust for Daylight Saving Time where and when it is observed.

KITCHENER/WATERLOO
ONTARIO

43°27'39.000" N
80°22'43.000" W
321.60 m
6144239
71368
YKF

Download Data

Hourly Data (October 2015)
Hourly Data Report for October 1, 2015
Temp Definition
°C
Dew Point Temp Definition
°C
Rel Hum Definition
%
Wind Dir Definition
10's deg

Wind Spd Definition
km/h
Visibility Definition
km
Stn Press Definition
kPa
Hmdx Definition


Wind Chill Definition


Weather Definition


TIME
00:00 Legend Double Dagger 7.0 1.4 68 4 17 16.1 98.61     LegendNANA
01:00 Legend Double Dagger 6.5 0.8 67 5 17 16.1 98.62     LegendNANA
02:00 Legend Double Dagger 5.8 0.7 70 4 15 16.1 98.66     LegendNANA
03:00 Legend Double Dagger 5.5 0.4 70 4 17 16.1 98.66     LegendNANA
04:00 Legend Double Dagger 4.6 0.4 74 4 11 16.1 98.68     LegendNANA
05:00 Legend Double Dagger 4.1 0.3 76 4 15 16.1 98.71     LegendNANA
06:00 Legend Double Dagger 3.8 0.5 79 4 15 16.1 98.75     LegendNANA
07:00 Legend Double Dagger 3.9 0.5 78 4 13 16.1 98.80     LegendNANA
08:00 Legend Double Dagger 5.4 1.0 73 4 15 16.1 98.85     LegendNANA
09:00 Legend Double Dagger 6.7 1.1 67 4 21 16.1 98.86     LegendNANA
10:00 Legend Double Dagger 8.1 1.2 62 6 24 16.1 98.86     LegendNANA
11:00 Legend Double Dagger 10.6 2.4 57 6 26 16.1 98.86     LegendNANA
12:00 Legend Double Dagger 11.2 1.4 51 4 24 16.1 98.87     LegendNANA
13:00 Legend Double Dagger 12.4 1.4 47 5 22 16.1 98.84     LegendNANA
14:00 Legend Double Dagger 13.2 0.9 43 6 21 16.1 98.82     LegendNANA
15:00 Legend Double Dagger 14.0 1.2 41 7 24 16.1 98.79     LegendNANA
16:00 Legend Double Dagger 13.9 0.5 40 6 18 16.1 98.79     LegendNANA
17:00 Legend Double Dagger 13.3 -0.1 40 4 21 16.1 98.81     LegendNANA
18:00 Legend Double Dagger 11.3 0.9 49 3 11 16.1 98.89     LegendNANA
19:00 Legend Double Dagger 9.8 1.2 55 2 11 16.1 98.95     LegendNANA
20:00 Legend Double Dagger 8.8 1.3 59 3 11 16.1 99.01     LegendNANA
21:00 Legend Double Dagger 8.4 0.8 59 5 17 16.1 99.05     LegendNANA
22:00 Legend Double Dagger 8.4 -0.4 54 5 22 16.1 99.06     LegendNANA
23:00 Legend Double Dagger 7.8 -0.4 56 5 21 16.1 99.04     LegendNANA

Notes on Data Quality.

Legend

  • E = Estimated
  • M = Missing
  • NA = Not Available
  • ‡ = Partner data that is not subject to review by the National Climate Archives
Date modified: